Weather History for 78641 - November, 2013

Change the Weather History Date:

Wednesday, November 6, 2013

  Actual Average Record
Temperature  
Mean Temperature 68 °F -  
Max Temperature 77 °F 71 °F - ()
Min Temperature 58 °F 56 °F - ()
Cooling Degree Days 2    
Growing Degree Days 18 (Base 50)    
Moisture  
Dew Point 59 °F    
Average Humidity 77    
Maximum Humidity 94    
Minimum Humidity 48    
Precipitation  
Precipitation 0.00 in - - ()
Sea Level Pressure  
Sea Level Pressure 30.21 in    
Wind  
Wind Speed 9 mph ()    
Max Wind Speed 16 mph    
Max Gust Speed -    
Visibility 6.2 miles    
Events      
T = Trace of Precipitation, MM = Missing Value Source: Averaged Metar Reports

Daily Weather History Graph

Daily Weather History Graph

Search for Another Location

Airport or City:

Trip Planner

Search our weather history database for the weather conditions in past years. The results will help you decide how hot, cold, wet, or windy it might be!

Date:

Astronomy

Nov. 06, 2013 Rise Set
Actual Time 5:59 AM CST 5:31 PM CST
Civil Twilight 5:37 AM CST 5:54 PM CST
Nautical Twilight 5:11 AM CST 6:19 PM CST
Astronomical Twilight 4:46 AM CST 6:45 PM CST
Moon 9:02 AM CST (11/6) 8:47 PM CST (11/6)
Length of Visible Light 12h 16m
Length of Day
11h 32m
Waxing Crescent, 14% of the Moon is Illuminated
Nov 6
Waxing Crescent
Nov 9
First Quarter
Nov 17
Full
Nov 25
Last Quarter
Dec 2
New

Hourly Weather History & Observations

Time (CST) Temp. Dew Point Humidity Pressure Visibility Wind Dir Wind Speed Gust Speed Precip Events Conditions
12:00 AM 60.8 °F 59.0 °F 94% 30.24 in 6.2 mi North 9.2 mph - N/A   Scattered Clouds
1:00 AM 60.8 °F 59.0 °F 94% 30.24 in 6.2 mi North 9.2 mph - N/A   Scattered Clouds
2:00 AM 60.8 °F 59.0 °F 94% 30.21 in 6.2 mi NNE 9.2 mph - N/A   Scattered Clouds
3:00 AM 60.8 °F 57.2 °F 88% 30.21 in 6.2 mi North 9.2 mph - N/A   Mostly Cloudy
4:00 AM 59.0 °F 57.2 °F 94% 30.21 in 6.2 mi NNE 9.2 mph - N/A   Partly Cloudy
5:00 AM 59.0 °F 57.2 °F 94% 30.21 in 6.2 mi NNE 9.2 mph - N/A   Partly Cloudy
6:00 AM 59 °F 56 °F 87% 29.95 in 25 mi North 9.2 mph - -   Scattered Clouds
6:00 AM 59.0 °F 55.4 °F 88% 30.24 in 6.2 mi North 9.2 mph - N/A   Partly Cloudy
7:00 AM 60.8 °F 57.2 °F 88% 30.24 in 6.2 mi North 9.2 mph - N/A   Partly Cloudy
8:00 AM 64.4 °F 59.0 °F 83% 30.27 in 6.2 mi North 11.5 mph - N/A   Partly Cloudy
9:00 AM 68.0 °F 57.2 °F 68% 30.27 in 6.2 mi North 11.5 mph - N/A   Partly Cloudy
10:00 AM 71.6 °F 57.2 °F 60% 30.27 in 6.2 mi North 13.8 mph - N/A   Scattered Clouds
11:00 AM 73.4 °F 57.2 °F 57% 30.24 in 6.2 mi North 13.8 mph - N/A   Partly Cloudy
12:00 PM 75 °F 59 °F 48% 29.91 in 25 mi North 11.5 mph - -   Scattered Clouds
12:00 PM 75.2 °F 59.0 °F 57% 30.24 in 6.2 mi North 11.5 mph - N/A   Partly Cloudy
1:00 PM 77.0 °F 59.0 °F 54% 30.21 in 6.2 mi North 13.8 mph - N/A   Scattered Clouds
2:00 PM 77.0 °F 60.8 °F 57% 30.18 in 6.2 mi North 13.8 mph - N/A   Scattered Clouds
3:00 PM 77.0 °F 59.0 °F 54% 30.18 in 6.2 mi North 11.5 mph - N/A   Scattered Clouds
4:00 PM 73.4 °F 59.0 °F 61% 30.18 in 6.2 mi North 9.2 mph - N/A   Mostly Cloudy
5:00 PM 71.6 °F 60.8 °F 69% 30.18 in 6.2 mi NNE 6.9 mph - N/A   Mostly Cloudy
6:00 PM 69.8 °F 62.6 °F 78% 30.21 in 6.2 mi North 9.2 mph - N/A   Partly Cloudy
7:00 PM 68.0 °F 64.4 °F 88% 30.24 in 6.2 mi North 9.2 mph - N/A   Scattered Clouds
8:00 PM 66.2 °F 60.8 °F 83% 30.27 in 6.2 mi North 16.1 mph - N/A   Scattered Clouds
9:00 PM 66.2 °F 60.8 °F 83% 30.30 in 6.2 mi North 9.2 mph - N/A   Scattered Clouds
10:00 PM 64.4 °F 62.6 °F 94% 30.30 in 6.2 mi North 9.2 mph - N/A   Scattered Clouds
11:00 PM 64.4 °F 60.8 °F 88% 30.30 in 6.2 mi North 9.2 mph - N/A   Mostly Cloudy